sat.trackr.live / text

‹ back to catalog

STARLINK-31959

NORAD 59925 · 2024-106D

PAYLOAD ACTIVE UNKNOWN

§ Identity

Operator
Country
US
Launch date
2024-06-01
Launch site
AFETR
Launch vehicle
Mass (kg)
RCS (m²)

Purposes: comms

External: N2YO · Heavens-Above · Gunter

§ Orbital elements

Epoch: 2026-09-21T10:32:44.800224Z

Period
94.27 min
Inclination
43.0047°
Eccentricity
0.0001631
Mean motion
15.27582377 rev/d
Perigee alt
481.9 km
Apogee alt
484.2 km
Semi-major
6,861.2 km
B*
6.2611e-5
RAAN
303.1925°
Arg perigee
270.8311°
Mean anomaly
89.2353°
Rev number
13,050

§ Raw data

STARLINK-319591 59925U 24106D   26264.43940741  .00001461  00000+0  62611-4 0  99962 59925  43.0047 303.1925 0001631 270.8311  89.2353 15.27582377130502

JSON: /api/v1/satellites/59925 · /tle

For live sub-satellite position, see the globe view (requires WebGL).

§ Visibility from observer

Set your observer location to see the next 7 days of passes ≥ 10°. The values pass through the URL so the page stays shareable.

No JS? Fill the form by hand. The geolocation button needs JavaScript.